Regional Weather Roundup
Issued by NWS

Home | Current Version | Previous Version | Text Only | Print | Product List | Glossary On
Versions: 1 2 3 4 5 6 7 8 9 10 11 12 13 14 15 16 17 18 19 20 21 22 23 24 25 26 27 28 29 30 31 32 33 34 35 36 37 38 39 40 41 42 43 44 45 46 47 48 49 50
000
ASUS44 KOUN 050510
RWROK

WEATHER ROUNDUP FOR OKLAHOMA
NATIONAL WEATHER SERVICE NORMAN OK
1200 AM CDT SUN JUL 05 2015

NOTE: "FAIR" INDICATES FEW OR NO CLOUDS BELOW 12,000 FEET WITH NO
      SIGNIFICANT WEATHER AND/OR OBSTRUCTIONS TO VISIBILITY.

OKZ001>007-009>012-014-015-017-050600-
NORTHWEST OKLAHOMA AND THE PANHANDLE

CITY           SKY/WX    TMP DP  RH WIND       PRES   REMARKS
GAGE           PTCLDY    76  67  73 S14       29.95R
GUYMON         PTCLDY    77  62  59 S12       29.94S
ENID/WOODRING  PTCLDY    75  70  83 S6        29.94R
$$

OKZ016-021>023-033>039-044-045-050600-
SOUTHWEST OKLAHOMA

CITY           SKY/WX    TMP DP  RH WIND       PRES   REMARKS
LAWTON/REGL    MOCLDY    78  70  76 SE10      29.95R
LAWTON/FT SILL MOCLDY    77  71  82 SE10      29.94R
FREDERICK      CLOUDY    78  71  79 E10       29.92R
CLINTON        MOCLDY    77  63  61 SE10      29.98R
HOBART         CLOUDY    78  65  63 S9        29.96R
ALTUS AFB      CLOUDY    77  69  76 E9        29.94R
$$

OKZ018>020-024>031-050600-
CENTRAL OKLAHOMA

CITY           SKY/WX    TMP DP  RH WIND       PRES   REMARKS
OKLAHOMA CITY  MOCLDY    74  70  87 SE14      29.97R
OKC/WILEY POST CLOUDY    78  68  71 S17G23    29.96R
OKC/TINKER AFB CLEAR     74  70  88 S12       29.97R
STILLWATER     FAIR      79  72  79 SE12      29.95S
GUTHRIE        CLEAR     76  70  82 S9        29.95S HAZE
$$

OKZ008-013-054>072-050600-
NORTHEAST OKLAHOMA

CITY           SKY/WX    TMP DP  RH WIND       PRES   REMARKS
TULSA          PTCLDY    81  71  71 S9        29.96R
TULSA/JONES    CLEAR     80  71  74 S7        29.97R
PONCA CITY     CLEAR     79  69  71 SE12      29.94F
BARTLESVILLE   CLEAR     71  71 100 CALM      29.96F FOG
MUSKOGEE       CLEAR     75  71  87 CALM      29.98R
$$

OKZ032-040>043-046>053-073>077-050600-
SOUTH CENTRAL/SOUTHEAST OKLAHOMA

CITY           SKY/WX    TMP DP  RH WIND       PRES   REMARKS
ARDMORE/DWNTWN MOCLDY    73  68  83 SE3       29.99S
MCALESTER      MOCLDY    72  68  87 MISG      29.99S
$$




USA.gov is the U.S. government's official web portal to all federal, state and local government web resources and services.